Weather History for Stuart, FL

Change the Weather History Date:

Friday, November 23, 2012

  Actual Average Record
Temperature  
Mean Temperature 63 °F -  
Max Temperature 73 °F 78 °F 87 °F (1948)
Min Temperature 51 °F 60 °F 43 °F (1981)
Degree Days  
Heating Degree Days 2    
Growing Degree Days 13 (Base 50)    
Moisture  
Dew Point 51 °F    
Average Humidity 72    
Maximum Humidity 94    
Minimum Humidity 44    
Precipitation  
Precipitation 0.00 in - - ()
Sea Level Pressure  
Sea Level Pressure 30.11 in    
Wind  
Wind Speed 8 mph (NNW)    
Max Wind Speed 12 mph    
Max Gust Speed 21 mph    
Visibility 10 miles    
Events      
Averages and records for this station are not official NWS values.
T = Trace of Precipitation, MM = Missing Value Source: NWS Daily Summary

Daily Weather History Graph

Daily Weather History Graph

Search for Another Location

Airport:

Trip Planner

Search our weather history database for the weather conditions in past years. The results will help you decide how hot, cold, wet, or windy it might be!

Date:

Astronomy

Nov. 23, 2012 Rise Set
Actual Time 6:47 AM EST 5:27 PM EST
Civil Twilight 6:22 AM EST 5:52 PM EST
Nautical Twilight 5:54 AM EST 6:20 PM EST
Astronomical Twilight 5:26 AM EST 6:48 PM EST
Moon 2:22 PM EST (11/23) 2:26 AM EST (11/23)
Length of Visible Light 11h 29m
Length of Day
10h 39m
Waxing Gibbous, 79% of the Moon is Illuminated
Nov 23
Waxing Gibbous
Nov 28
Full
Dec 6
Last Quarter
Dec 13
New
Dec 20
First Quarter

Hourly Weather History & Observations

Time (EST) Temp. Dew Point Humidity Pressure Visibility Wind Dir Wind Speed Gust Speed Precip Events Conditions
12:15 AM 57.2 °F 46.4 °F 67% 30.12 in 10.0 mi NNW 10.4 mph - N/A   Clear
12:35 AM 57.2 °F 46.4 °F 67% 30.12 in 10.0 mi NNW 9.2 mph - N/A   Clear
12:55 AM 57.2 °F 46.4 °F 67% 30.12 in 10.0 mi NNW 10.4 mph 16.1 mph N/A   Clear
1:15 AM 59.0 °F 48.2 °F 67% 30.11 in 10.0 mi NNW 9.2 mph - N/A   Clear
1:35 AM 59.0 °F 48.2 °F 67% 30.11 in 10.0 mi NNW 6.9 mph - N/A   Clear
1:55 AM 59.0 °F 48.2 °F 67% 30.11 in 10.0 mi NW 8.1 mph - N/A   Clear
2:15 AM 59.0 °F 48.2 °F 67% 30.11 in 10.0 mi NW 6.9 mph - N/A   Clear
2:35 AM 59.0 °F 48.2 °F 67% 30.11 in 10.0 mi NW 9.2 mph - N/A   Mostly Cloudy
2:55 AM 57.2 °F 48.2 °F 72% 30.10 in 10.0 mi NW 11.5 mph - N/A   Mostly Cloudy
3:15 AM 57.2 °F 48.2 °F 72% 30.10 in 10.0 mi NW 5.8 mph - N/A   Scattered Clouds
3:35 AM 55.4 °F 48.2 °F 77% 30.10 in 10.0 mi NW 5.8 mph - N/A   Scattered Clouds
3:55 AM 57.2 °F 50.0 °F 77% 30.10 in 10.0 mi WNW 6.9 mph - N/A   Scattered Clouds
4:15 AM 57.2 °F 50.0 °F 77% 30.10 in 10.0 mi NW 9.2 mph - N/A   Overcast
4:35 AM 57.2 °F 48.2 °F 72% 30.10 in 10.0 mi NW 8.1 mph - N/A   Overcast
4:55 AM 57.2 °F 48.2 °F 72% 30.10 in 10.0 mi NW 9.2 mph - N/A   Mostly Cloudy
5:15 AM 57.2 °F 48.2 °F 72% 30.10 in 10.0 mi NNW 8.1 mph - N/A   Scattered Clouds
6:47 AM 59.0 °F 48.2 °F 67% 30.12 in 10.0 mi NNW 9.2 mph - N/A   Partly Cloudy
7:47 AM 59.0 °F 48.2 °F 67% 30.14 in 10.0 mi NNW 9.2 mph - N/A   Partly Cloudy
8:47 AM 64.4 °F 50.0 °F 59% 30.15 in 10.0 mi NNW 10.4 mph - N/A   Partly Cloudy
9:47 AM 68.0 °F 50.0 °F 52% 30.17 in 10.0 mi NNW 9.2 mph - N/A   Clear
10:47 AM 73.4 °F 53.6 °F 50% 30.16 in 10.0 mi North 8.1 mph - N/A   Clear
11:47 AM 73.4 °F 50.0 °F 44% 30.14 in 10.0 mi North 9.2 mph 17.3 mph N/A   Partly Cloudy
1:47 PM 73.4 °F 53.6 °F 50% 30.09 in 7.0 mi North 11.5 mph 20.7 mph N/A   Scattered Clouds
3:47 PM 71.6 °F 53.6 °F 53% 30.08 in 7.0 mi North 10.4 mph - N/A   Partly Cloudy
4:47 PM 68.0 °F 53.6 °F 60% 30.08 in 7.0 mi North 8.1 mph - N/A   Partly Cloudy
5:47 PM 66.2 °F 55.4 °F 68% 30.08 in 7.0 mi Calm Calm - N/A   Partly Cloudy
7:15 PM 62.6 °F 57.2 °F 82% 30.12 in 10.0 mi NNW 3.5 mph - N/A   Clear
7:35 PM 62.6 °F 57.2 °F 82% 30.12 in 10.0 mi NNW 3.5 mph - N/A   Clear
7:55 PM 62.6 °F 57.2 °F 82% 30.12 in 10.0 mi NNW 3.5 mph - N/A   Clear
8:15 PM 62.6 °F 57.2 °F 82% 30.11 in 10.0 mi North 4.6 mph - N/A   Clear
8:35 PM 62.6 °F 55.4 °F 77% 30.11 in 10.0 mi North 3.5 mph - N/A   Clear
8:55 PM 62.6 °F 55.4 °F 77% 30.12 in 10.0 mi NNW 3.5 mph - N/A   Clear
9:15 PM 59.0 °F 53.6 °F 82% 30.12 in 10.0 mi NW 3.5 mph - N/A   Clear
9:35 PM 59.0 °F 53.6 °F 82% 30.13 in 10.0 mi WNW 5.8 mph - N/A   Clear
9:55 PM 59.0 °F 53.6 °F 82% 30.12 in 10.0 mi WNW 3.5 mph - N/A   Clear
10:15 PM 57.2 °F 51.8 °F 82% 30.13 in 10.0 mi WNW 4.6 mph - N/A   Clear
10:35 PM 57.2 °F 51.8 °F 82% 30.12 in 10.0 mi WNW 4.6 mph - N/A   Clear
10:55 PM 55.4 °F 51.8 °F 88% 30.12 in 10.0 mi Calm Calm - N/A   Clear
11:15 PM 55.4 °F 50.0 °F 82% 30.12 in 10.0 mi Calm Calm - N/A   Clear
11:35 PM 53.6 °F 51.8 °F 94% 30.11 in 10.0 mi Calm Calm - N/A   Clear
11:55 PM 51.8 °F 50.0 °F 94% 30.10 in 10.0 mi Calm Calm - N/A   Clear